Flag for U.S.A. Weather past 2 weeks in Sitka, Alaska, U.S.A.

Now
43 °F

Overcast.


Feels Like: 40 °F
Forecast: 36 / 48 °F
Wind: 5 mph from Southwest

Location: Sitka Airport

Current Time: Feb 28, 2015 at 4:21:55 PM

Latest Report: Feb 28, 2015 at 3:53 PM


Visibility: 10 mi

Pressure: 30.33 "Hg

Humidity: 79%

Dew point: 37 °F

Location of SitkaLocation

Historic Weather in Sitka — Graph

°F

Sitka temperature yesterday

Maximum temperature yesterday: 46 °F (at 12:53 PM)
Minimum temperature yesterday: 31 °F (at 3:53 AM)
Average temperature yesterday: 38 °F

Past Weeks' High & Low Weather Summary

 TemperatureHumidityPressure
High56 °F (Feb 16, 2:53 PM)100% (Feb 15, 2:53 AM)30.46 "Hg (Feb 15, 2:53 AM)
Low31 °F (Feb 27, 3:53 AM)34% (Feb 16, 11:53 AM)29.72 "Hg (Feb 18, 7:53 AM)
Average42 °F83%30.24 "Hg
* Reported Feb 13 2:53 PM — Feb 28 2:53 PM, Sitka, Weather by CustomWeather, © 2015

Note: Actual official high and low records may vary slightly from our data, if they occured in-between our weather recording intervals... More about our weather records

Advertising

Sitka weather history for previous 24 hours

 ConditionsComfort  
Time TempWeatherWind HumidityBarometerVisibility
2:53 PM
Sat, Feb 28
43 °FOvercast.6 mph79%30.34 "Hg10 mi
1:53 PM43 °FOvercast.6 mph76%30.35 "Hg10 mi
12:53 PM42 °FMore clouds than sun.7 mph79%30.36 "Hg10 mi
11:53 AM42 °FPartly sunny.5 mph76%30.36 "Hg10 mi
10:53 AM41 °FPartly sunny.No wind76%30.37 "Hg10 mi
9:53 AM39 °FOvercast.3 mph76%30.36 "Hg10 mi
8:53 AM36 °FOvercast.3 mph79%30.35 "Hg10 mi
7:53 AM34 °FPartly sunny.5 mph85%30.36 "Hg10 mi
6:53 AM34 °FPassing clouds.No wind82%30.36 "Hg10 mi
5:53 AM37 °FClear.6 mph82%30.37 "Hg10 mi
4:53 AM35 °FPassing clouds.5 mph85%30.37 "Hg10 mi
3:53 AM33 °FClear.6 mph88%30.39 "Hg10 mi
2:53 AM37 °FClear.3 mph82%30.38 "Hg10 mi
1:53 AM34 °FClear.No wind85%30.38 "Hg10 mi
12:53 AM34 °FClear.No wind85%30.38 "Hg10 mi
11:53 PM
Fri, Feb 27
33 °FClear.6 mph88%30.38 "Hg10 mi
10:53 PM36 °FClear.No wind82%30.39 "Hg10 mi
9:53 PM35 °FClear.5 mph78%30.38 "Hg10 mi
8:53 PM35 °FClear.3 mph78%30.39 "Hg10 mi
7:53 PM37 °FClear.No wind79%30.37 "Hg10 mi
6:53 PM38 °FClear.No wind73%30.38 "Hg10 mi
5:53 PM40 °FClear.5 mph73%30.38 "Hg10 mi
4:53 PM45 °FSunny.No wind68%30.39 "Hg10 mi
Weather by CustomWeather, © 2015

See weather overviewHow to use our weather pages